Saranac Lake, NY

4:35 PM EDT on September 20, 2017 (GMT -0400)
Adirondack Regional

Weather History for KSLK - January, 2014

Change the Weather History Date:

Wednesday, January 15, 2014

  Actual Average Record
Temperature  
Mean Temperature 29 °F 13 °F  
Max Temperature 36 °F 25 °F 49 °F (1950)
Min Temperature 21 °F 2 °F -36 °F (1957)
Degree Days  
Heating Degree Days 36 52  
Month to date heating degree days 739 771  
Since 1 July heating degree days 4577 4470  
Cooling Degree Days 0 0  
Month to date cooling degree days 0  
Year to date cooling degree days 0  
Moisture  
Dew Point 25 °F    
Average Humidity 86    
Maximum Humidity 100    
Minimum Humidity 72    
Precipitation  
Precipitation T in 0.05 in 0.53 in (2007)
Month to date precipitation 1.49 1.02  
Year to date precipitation 1.49 1.02  
Sea Level Pressure  
Sea Level Pressure 29.85 in    
Wind  
Wind Speed 6 mph (SW)    
Max Wind Speed 20 mph    
Max Gust Speed 26 mph    
Visibility 8 miles    
Events Snow    
T = Trace of Precipitation, MM = Missing Value Source: NWS Daily Summary

Daily Weather History Graph

Daily Weather History Graph

Search for Another Location

Airport or City:

Trip Planner

Search our weather history database for the weather conditions in past years. The results will help you decide how hot, cold, wet, or windy it might be!

Date:

Astronomy

Jan. 15, 2014 Rise Set
Actual Time 7:29 AM EST 4:43 PM EST
Civil Twilight 6:57 AM EST 5:15 PM EST
Nautical Twilight 6:21 AM EST 5:51 PM EST
Astronomical Twilight 5:46 AM EST 6:26 PM EST
Moon 4:41 PM EST (1/15) 6:42 AM EST (1/15)
Length of Visible Light 10h 18m
Length of Day
9h 13m
Full, 100% of the Moon is Illuminated
Jan 15
Full
Jan 15
Full
Jan 24
Last Quarter
Jan 30
New
Feb 6
First Quarter

Hourly Weather History & Observations

Time (EST) Temp. Windchill Dew Point Humidity Pressure Visibility Wind Dir Wind Speed Gust Speed Precip Events Conditions
12:51 AM 30.0 °F 24.1 °F 25.0 °F 82% 29.79 in 10.0 mi SW 5.8 mph - N/A   Overcast
1:51 AM 30.0 °F 23.2 °F 23.0 °F 75% 29.80 in 10.0 mi SW 6.9 mph - N/A   Overcast
2:51 AM 28.0 °F 21.7 °F 21.9 °F 78% 29.83 in 10.0 mi SW 5.8 mph - N/A   Partly Cloudy
3:51 AM 26.1 °F - 24.1 °F 92% 29.83 in 10.0 mi Calm Calm - N/A   Mostly Cloudy
4:09 AM 25.0 °F - 23.0 °F 92% 29.77 in 10.0 mi Calm Calm - N/A   Scattered Clouds
4:51 AM 23.0 °F - 21.9 °F 96% 29.83 in 9.0 mi Calm Calm - N/A   Partly Cloudy
5:51 AM 21.9 °F - 21.0 °F 96% 29.83 in 10.0 mi Calm Calm - N/A   Clear
6:51 AM 21.0 °F - 19.9 °F 96% 29.82 in 9.0 mi Calm Calm - N/A   Clear
7:51 AM 21.9 °F - 21.0 °F 96% 29.85 in 9.0 mi Calm Calm - N/A   Mostly Cloudy
8:51 AM 26.1 °F - 23.0 °F 88% 29.85 in 9.0 mi Calm Calm - N/A   Partly Cloudy
9:51 AM 32.0 °F 27.5 °F 25.0 °F 75% 29.86 in 10.0 mi SW 4.6 mph - N/A   Mostly Cloudy
10:24 AM 35.1 °F 27.9 °F 27.0 °F 72% 29.81 in 10.0 mi SW 9.2 mph - N/A   Mostly Cloudy
10:51 AM 35.1 °F 25.5 °F 28.0 °F 76% 29.85 in 10.0 mi SSW 15.0 mph - N/A   Overcast
11:43 AM 35.1 °F 26.9 °F 30.9 °F 85% 29.77 in 2.5 mi SSW 11.5 mph - 0.00 in Snow Light Snow
11:51 AM 35.1 °F 27.9 °F 30.9 °F 85% 29.82 in 4.0 mi SW 9.2 mph - 0.00 in Snow Light Snow
12:51 PM 36.0 °F 26.3 °F 30.9 °F 82% 29.80 in 10.0 mi SSW 16.1 mph - 0.00 in   Overcast
1:51 PM 35.1 °F 26.9 °F 30.9 °F 85% 29.81 in 10.0 mi SW 11.5 mph - N/A   Overcast
2:51 PM 35.1 °F 28.6 °F 32.0 °F 89% 29.83 in 8.0 mi SW 8.1 mph - 0.00 in   Overcast
3:37 PM 34.0 °F 28.0 °F 30.9 °F 89% 29.79 in 2.5 mi WSW 6.9 mph - 0.00 in Snow Light Snow
3:41 PM 33.1 °F 26.1 °F 30.9 °F 92% 29.79 in 2.5 mi WSW 8.1 mph - 0.00 in Snow Light Snow
3:51 PM 32.0 °F 24.2 °F 30.0 °F 92% 29.86 in 1.5 mi West 9.2 mph - 0.00 in Snow Light Snow
4:32 PM 30.0 °F 23.2 °F 28.0 °F 92% 29.81 in 3.0 mi Variable 6.9 mph - 0.00 in Snow Light Snow
4:51 PM 28.9 °F 21.9 °F 28.0 °F 96% 29.89 in 5.0 mi Variable 6.9 mph - 0.00 in   Overcast
5:51 PM 28.0 °F 20.8 °F 25.0 °F 88% 29.91 in 4.0 mi West 6.9 mph - 0.00 in   Overcast
6:04 PM 28.0 °F 20.0 °F 25.0 °F 88% 29.85 in 7.0 mi WSW 8.1 mph - N/A   Overcast
6:51 PM 27.0 °F 21.6 °F 24.1 °F 89% 29.93 in 5.0 mi Variable 4.6 mph - 0.00 in Snow Light Snow
7:51 PM 27.0 °F 19.5 °F 21.0 °F 78% 29.93 in 10.0 mi WSW 6.9 mph - 0.00 in   Overcast
8:02 PM 26.1 °F 20.5 °F 21.9 °F 84% 29.86 in 10.0 mi WSW 4.6 mph - N/A   Overcast
8:27 PM 26.1 °F 19.4 °F 21.0 °F 81% 29.86 in 10.0 mi WSW 5.8 mph - N/A   Overcast
8:51 PM 26.1 °F 18.4 °F 21.0 °F 81% 29.93 in 10.0 mi WSW 6.9 mph - N/A   Overcast
9:51 PM 26.1 °F 19.4 °F 19.0 °F 75% 29.93 in 10.0 mi Variable 5.8 mph - N/A   Overcast
10:51 PM 25.0 °F 17.1 °F 18.0 °F 75% 29.93 in 10.0 mi West 6.9 mph - N/A   Overcast
11:51 PM 25.0 °F 20.7 °F 18.0 °F 75% 29.91 in 10.0 mi WSW 3.5 mph - N/A   Overcast